24h Messdaten per 22.09.2018 um 07:05:08

Datum Zeit Luftdruck Temp Balkon Feuchte Balkon Temp Strasse Feuchte Strasse Wind km/h Wind Boe Wind aus (Grad) Regen l/15min Licht Lux Sonne h/Monat
22.09.18 07:05:08 1012 9.7 41 12.1 65 45 24.33
22.09.18 07:00:08 1012 9.5 41 12.1 65 0 24.33
22.09.18 06:55:08 1012 9.5 41 12.1 65 0 24.33
22.09.18 06:50:09 1012 9.6 41 12.1 65 0 24.33
22.09.18 06:45:09 1012 9.4 42 12.1 65 0 24.33
22.09.18 06:40:09 1012 9.5 41 12.1 65 0 24.33
22.09.18 06:35:11 1012 9.4 42 12.1 65 0 24.33
22.09.18 06:30:11 1011 9.3 41 12.1 64 0 24.33
22.09.18 06:25:11 1011 9.4 41 12.2 64 0 24.33
22.09.18 06:20:08 1011 9.3 41 12.2 64 0 24.33
22.09.18 06:15:08 1011 9.5 41 12.2 64 0.0 0 24.33
22.09.18 06:10:08 1011 9.4 41 12.2 63 0.0 0 24.33
22.09.18 06:05:08 1011 0.0
22.09.18 06:00:08 1011 9.4 40 12.2 62 0.0 0 24.33
22.09.18 05:54:08 1011 9.5 40 12.2 62 0.0 0 24.33
22.09.18 05:49:08 1011 9.5 40 12.3 61 0.0 0 24.33
22.09.18 05:44:08 1011 9.3 41 12.3 61 0.0 0 24.33
22.09.18 05:39:08 1011 9.4 40 12.3 61 0.0 0 24.33
22.09.18 05:34:08 1011 9.1 40 12.3 60 0.0 0 24.33
22.09.18 05:29:08 1011 9.4 40 12.3 60 0.0 0 24.33
22.09.18 05:24:08 1011 9.3 39 12.4 59 0.0 0 24.33
22.09.18 05:19:08 1011 9.6 38 12.5 59 0.0 0 24.33
22.09.18 05:14:08 1011 9.7 38 12.6 59 4.3 4.3 45 0.0
22.09.18 05:09:08 1011 9.6 38 12.6 59 4.3 4.3 45 0.0 0 24.33
22.09.18 05:04:08 1011 9.7 38 4.3 7.6 135 0.0
22.09.18 04:59:08 1011 9.6 37 12.6 59 4.0 6.8 67.5 0.0 0 24.33
22.09.18 04:54:09 1011 9.9 37 12.6 59 4.0 6.8 67.5 0.0 0 24.33
22.09.18 04:49:08 1011 9.6 38 12.6 59 3.6 5.4 135 0.0 0 24.33
22.09.18 04:44:08 1011 9.7 38 12.6 59 3.6 5.8 135 0.0 0 24.33
22.09.18 04:39:08 1011 9.8 37 12.5 59 3.6 5.8 135 0.0 0 24.33
22.09.18 04:34:08 1011 9.6 38 12.6 59 2.9 4.0 135 0.0 0 24.33
22.09.18 04:29:08 1011 9.9 37 12.6 59 3.6 6.1 67.5 0.0 0 24.33
22.09.18 04:24:08 1011 9.8 37 12.6 59 3.6 6.1 67.5 0.0 0 24.33
22.09.18 04:19:08 1011 9.8 37 12.6 59 2.9 3.2 112.5 0.0 0 24.33
22.09.18 04:14:08 1011 9.9 38 12.7 59 3.2 2.2 135 0.0 0 24.33
22.09.18 04:09:08 1011 9.6 38 12.7 58 3.2 2.2 135 0.0 0 24.33
22.09.18 04:04:08 1011 12.7 58 3.6 4.7 112.5 0.0
22.09.18 03:59:08 1011 9.8 37 12.7 58 4.0 2.9 45 0.0 0 24.33
22.09.18 03:54:09 1011 9.7 37 12.7 58 4.0 2.9 45 0.0 0 24.33
22.09.18 03:49:08 1011 9.8 37 3.6 4.7 112.5 0.0 0 24.33
22.09.18 03:44:08 1011 9.7 37 12.7 58 2.9 6.1 112.5 0.0 0 24.33
22.09.18 03:39:08 1010 9.9 36 12.7 58 2.9 6.1 112.5 0.0 0 24.33
22.09.18 03:34:08 1010 9.8 37 12.7 57 2.9 4.0 247.5 0.0 0 24.33
22.09.18 03:29:08 1010 10.0 36 12.7 57 3.2 2.2 135 0.0 0 24.33
22.09.18 03:24:08 1010 10.1 36 12.8 57 3.2 2.2 135 0.0 0 24.33
22.09.18 03:19:08 1010 9.6 36 12.8 56 3.2 5.4 45 0.0 0 24.33
22.09.18 03:14:08 1010 10.0 36 2.9 3.2 90 0.0 0 24.33
22.09.18 03:09:08 1010 10.0 35 12.9 56 2.9 3.2 90 0.0 0 24.33
22.09.18 03:04:08 1010 9.9 35 2.9 4.0 67.5 0.0 0 24.33
22.09.18 02:59:08 1010 10.1 35 12.9 55 2.9 5.0 45 0.0 0 24.33
22.09.18 02:54:09 1010 10.1 33 12.9 55 2.9 5.0 45 0.0 0 24.33
22.09.18 02:49:09 1010 10.0 34 12.9 55 2.5 3.6 135 0.0 0 24.33
22.09.18 02:44:09 1010 13.0 54 2.9 2.9 0 0.0 0 24.33
22.09.18 02:39:08 1010 10.2 33 13.0 54 2.9 2.9 0 0.0 0 24.33
22.09.18 02:34:08 1010 10.3 34 13.1 54 3.2 4.0 67.5 0.0 0 24.33
22.09.18 02:29:08 1010 10.0 34 13.1 53 4.7 0.0 67.5 0.0 0 24.33
22.09.18 02:24:08 1010 10.4 32 13.2 53 4.7 0.0 67.5 0.0 0 24.33
22.09.18 02:19:08 1010 10.1 33 13.2 53 3.6 9.4 112.5 0.0 0 24.33
22.09.18 02:14:08 1010 10.5 32 13.2 53 2.5 0.0 67.5 0.0 0 24.33
22.09.18 02:09:09 1010 10.4 31 13.2 53 2.5 0.0 67.5 0.0 0 24.33
22.09.18 02:04:09 1010 10.5 32 2.9 2.2 45 0.0
22.09.18 01:59:09 1010 10.5 31 13.3 52 3.2 3.6 112.5 0.0 0 24.33
22.09.18 01:54:08 1010 10.6 31 13.3 52 3.2 3.6 112.5 0.0 0 24.33
22.09.18 01:49:08 1010 10.7 31 13.4 52 3.2 6.8 45 0.0 0 24.33
22.09.18 01:44:08 1010 10.6 31 13.4 52 4.0 2.9 22.5 0.0 0 24.33
22.09.18 01:39:09 1009 10.4 31 13.4 52 4.0 2.9 22.5 0.0 0 24.33
22.09.18 01:34:09 1009 10.8 31 13.5 51 4.3 2.9 45 0.0 0 24.33
22.09.18 01:29:09 1009 10.7 30 13.6 51 3.6 6.1 112.5 0.0 0 24.33
22.09.18 01:24:09 1009 10.7 31 13.6 51 3.6 6.1 112.5 0.0 0 24.33
22.09.18 01:19:09 1009 11.0 28 13.6 51 3.2 2.9 112.5 0.0 0 24.33
22.09.18 01:14:08 1009 11.1 28 13.7 50 4.3 3.2 45 0.0 0 24.33
22.09.18 01:09:09 1009 10.9 28 13.7 50 4.3 3.2 45 0.0 0 24.33
22.09.18 01:04:09 4.3 5.0 45 0.0 0 24.33
22.09.18 00:59:09 1009 11.1 26 13.7 49 5.0 7.9 112.5 0.0 0 24.33
22.09.18 00:54:08 1009 10.9 25 13.8 49 5.0 7.9 112.5 0.0 0 24.33
22.09.18 00:49:08 1009 11.1 23 13.8 48 4.3 8.3 112.5 0.0 0 24.33
22.09.18 00:44:08 1009 11.3 21 13.8 48 4.3 4.3 22.5 0.0 0 24.33
22.09.18 00:39:09 1009 11.1 22 13.8 48 4.3 4.3 22.5 0.0 0 24.33
22.09.18 00:34:09 1009 11.2 21 13.8 47 2.9 3.6 22.5 0.0 0 24.33
22.09.18 00:29:09 1009 11.3 20 13.9 47 3.6 3.6 67.5 0.0 0 24.33
22.09.18 00:24:09 1009 11.3 20 13.8 47 3.6 3.6 67.5 0.0 0 24.33
22.09.18 00:19:09 1009 11.3 20 13.9 47 4.0 5.4 67.5 0.0 0 24.33
22.09.18 00:14:08 1009 11.3 20 13.9 46 5.4 8.3 90 0.0 0 24.33
22.09.18 00:09:09 1008 11.4 20 13.9 46 5.4 8.3 90 0.0 0 24.33
22.09.18 00:04:09 1008 11.3 20 13.9 46 5.4 4.0 67.5 0.0 0 24.33
21.09.18 23:59:09 1008 11.2 20 13.9 46 5.0 2.9 157.5 0.0 0 24.33
21.09.18 23:54:08 1008 11.4 20 13.9 47 5.0 2.9 157.5 0.0 0 24.33
21.09.18 23:49:08 1008 11.4 20 13.9 46 5.0 9.4 112.5 0.0 0 24.33
21.09.18 23:44:08 1008 11.5 20 13.9 46 3.6 5.4 112.5 0.0 0 24.33
21.09.18 23:39:09 1008 11.4 20 13.9 46 3.6 5.4 112.5 0.0 0 24.33
21.09.18 23:34:09 1008 11.1 20 14.0 46 4.3 8.6 112.5 0.0 0 24.33
21.09.18 23:29:09 1008 11.5 20 14.0 46 3.6 9.0 135 0.0 0 24.33
21.09.18 23:24:08 1008 11.4 20 14.0 45 3.6 9.0 135 0.0 0 24.33
21.09.18 23:19:08 1008 11.4 20 14.1 46 4.7 4.0 247.5 0.0 0 24.33
21.09.18 23:14:08 1008 11.3 20 14.0 45 5.0 10.1 135 0.0 0 24.33
21.09.18 23:09:08 1008 11.4 20 14.1 45 5.0 10.1 135 0.0 0 24.33
21.09.18 23:04:08 1008 11.3 20 14.1 44 5.8 7.6 135 0.0 0 24.33
21.09.18 22:59:08 1008 11.5 20 14.1 44 6.1 5.8 112.5 0.0 0 24.33
21.09.18 22:54:08 1008 14.2 43 6.1 5.8 112.5 0.0 0 24.33
21.09.18 22:49:08 1008 14.2 43 6.8 5.8 292.5 0.0 0 24.33
21.09.18 22:44:08 1008 14.2 43 6.1 11.2 135 0.0 0 24.33
21.09.18 22:39:09 1007 11.5 20 14.3 42 6.1 11.2 135 0.0 0 24.33
21.09.18 22:34:09 1007 11.5 20 14.3 42 6.8 8.3 135 0.0 0 24.33
21.09.18 22:29:09 1007 11.6 20 14.3 42 7.2 9.0 135 0.0 0 24.33
21.09.18 22:24:09 1007 11.6 20 14.4 42 7.2 9.0 135 0.0 0 24.33
21.09.18 22:19:08 1007 11.5 20 14.4 42 6.1 12.6 112.5 0.0 0 24.33
21.09.18 22:14:08 1007 11.5 20 14.5 41 6.1 7.6 67.5 0.0 0 24.33
21.09.18 22:09:09 1007 11.5 20 14.5 41 6.1 7.6 67.5 0.0 0 24.33
21.09.18 22:04:09 1007 11.5 20 14.6 40 6.1 7.2 45 0.0 0 24.33
21.09.18 21:59:09 1007 11.4 20 14.6 40 6.1 12.6 67.5 0.0 0 24.33
21.09.18 21:54:08 1007 11.5 20 14.6 40 6.1 12.6 67.5 0.0 0 24.33
21.09.18 21:49:08 1007 11.8 20 14.6 39 5.8 4.7 112.5 0.0 0 24.33
21.09.18 21:44:08 1007 11.8 20 14.7 39 6.1 6.1 112.5 0.0 0 24.33
21.09.18 21:39:09 1007 11.8 20 14.7 38 6.1 6.1 112.5 0.0 0 24.33
21.09.18 21:34:09 1007 11.9 20 14.8 38 6.1 2.5 270 0.0 0 24.33
21.09.18 21:29:09 1007 12.2 20 14.9 37 6.1 11.5 45 0.0 0 24.33
21.09.18 21:24:09 1007 12.1 20 14.8 36 6.1 11.5 45 0.0 0 24.33
21.09.18 21:19:08 1006 12.1 20 14.9 36 5.4 14.8 112.5 0.0 0 24.33
21.09.18 21:14:08 1006 12.3 20 15.0 35 6.1 2.9 112.5 0.0 0 24.33
21.09.18 21:09:09 1006 12.3 20 15.1 34 6.1 2.9 112.5 0.0 0 24.33
21.09.18 21:04:09 1006 12.3 20 15.1 34 5.8 8.6 90 0.0 0 24.33
21.09.18 20:59:09 1006 12.5 20 15.2 33 4.7 12.6 135 0.0 0 24.33
21.09.18 20:54:09 1006 12.4 20 15.2 33 4.7 12.6 135 0.0 0 24.33
21.09.18 20:49:09 1006 12.6 20 15.3 33 4.3 4.7 135 0.0 0 24.33
21.09.18 20:44:09 1006 12.6 20 15.3 33 4.7 4.0 22.5 0.0 0 24.33
21.09.18 20:39:10 1006 13.0 20 15.4 33 4.7 4.0 22.5 0.0 0 24.33
21.09.18 20:34:09 1006 12.7 20 15.4 33 5.4 16.2 112.5 0.0 0 24.33
21.09.18 20:29:09 1006 12.9 20 15.4 33 5.0 6.8 45 0.0 0 24.33
21.09.18 20:24:11 1006 12.6 20 15.4 33 5.0 6.8 45 0.0 0 24.33
21.09.18 20:19:11 1006 12.7 20 15.6 34 4.7 4.7 135 0.0 0 24.33
21.09.18 20:14:10 1006 12.5 20 15.6 34 3.6 4.3 157.5 0.0 0 24.33
21.09.18 20:09:09 1005 12.4 20 15.7 35 3.6 4.3 157.5 0.0 4 24.33
21.09.18 20:04:09 1005 12.5 20 15.7 35 4.0 2.9 67.5 0.0 14 24.33
21.09.18 19:59:09 12.9 20 15.8 34 4.7 4.7 90 0.0
21.09.18 19:54:09 1005 12.8 20 15.8 34 4.7 4.7 90 0.0 59 24.33
21.09.18 19:49:09 1005 12.9 20 15.9 34 4.3 5.8 45 0.0 131 24.33
21.09.18 19:44:09 1005 13.0 20 15.9 33 4.0 2.2 112.5 0.0 251 24.33
21.09.18 19:39:09 1005 13.1 20 16.0 33 4.0 2.2 112.5 0.0 435 24.33
21.09.18 19:34:09 1005 13.2 20 16.1 33 4.0 3.6 112.5 0.0 548 24.33
21.09.18 19:29:09 1005 13.3 20 16.1 32 4.3 14.8 112.5 0.0 981 24.33
21.09.18 19:24:09 1005 13.4 20 16.3 32 4.3 14.8 112.5 0.0 1350 24.33
21.09.18 19:19:09 1005 13.5 20 16.2 31 5.0 3.6 112.5 0.0 1830 24.33
21.09.18 19:14:09 1005 13.9 20 16.3 30 6.5 8.3 67.5 0.0 2170 24.33
21.09.18 19:09:11 1005 13.9 20 16.3 30 6.5 8.3 67.5 0.0 2550 24.33
21.09.18 19:04:11 1005 13.6 20 16.5 31 6.1 7.6 90 0.0 2830 24.33
21.09.18 18:59:11 1004 13.8 20 16.5 29 4.7 12.2 90 0.0
21.09.18 18:54:09 1004 14.0 20 16.5 27 4.7 12.2 90 0.0 3560 24.33
21.09.18 18:49:09 1004 14.1 20 16.7 26 4.3 6.8 135 3460 24.33
21.09.18 18:44:09 1004 14.4 20 5.4 4.7 112.5 0.0 4300 24.33
21.09.18 18:39:09 1004 14.4 20 16.8 20 5.4 4.7 112.5 0.0 4630 24.33
21.09.18 18:34:09 1004 14.7 20 16.9 20 5.8 7.2 67.5 0.0 4810 24.33
21.09.18 18:29:09 1004 14.7 20 16.9 22 4.7 1.8 225 0.0 5120 24.33
21.09.18 18:24:09 1004 14.7 20 16.9 22 4.7 1.8 225 0.0 5450 24.33
21.09.18 18:19:09 1004 14.7 20 17.0 31 4.7 2.9 45 0.0 6430 24.33
21.09.18 18:14:09 1004 14.8 20 16.9 29 3.2 6.5 112.5 0.0 7520 24.33
21.09.18 18:09:09 1004 14.8 20 16.9 30 3.2 6.5 112.5 0.0 6200 24.33
21.09.18 18:04:09 1004 14.8 20 16.9 31 4.3 5.4 22.5 0.0 6560 24.33
21.09.18 17:59:09 1004 14.9 20 16.9 32 4.7 8.3 112.5 0.0 6660 24.33
21.09.18 17:54:10 1004 14.9 20 16.9 31 4.7 8.3 112.5 0.0 25100 24.33
21.09.18 17:49:10 1004 15.3 20 16.9 31 4.3 4.7 67.5 0.0 32400 24.25
21.09.18 17:44:09 1004 16.5 20 16.9 31 4.7 5.0 135 0.0 34100 24.22
21.09.18 17:39:09 1004 15.7 20 16.9 31 4.7 5.0 135 0.0 36400 24.17
21.09.18 17:34:09 1004 15.5 20 17.0 30 5.4 4.3 315 0.0 36700 24.12
21.09.18 17:29:09 1004 16.1 20 17.1 30 4.7 13.3 247.5 0.0 39000 24.06
21.09.18 17:24:10 1004 16.6 20 17.1 29 4.7 13.3 247.5 0.0 40600 24.01
21.09.18 17:19:10 1004 17.9 20 17.1 30 4.7 2.5 67.5 0.0 42300 23.56
21.09.18 17:14:10 1004 17.6 20 4.7 7.6 90 0.0 47700 23.53
21.09.18 17:09:09 1004 16.5 20 17.1 31 4.7 7.6 90 0.0 8430 23.48
21.09.18 17:04:09 1004 17.6 20 17.2 31 3.2 0.0 67.5 0.0 45800 23.46
21.09.18 16:59:09 1004 16.1 20 17.2 31 6.1 6.1 112.5 0.0 17200 23.40
21.09.18 16:54:09 1004 17.9 20 17.2 32 6.1 6.1 112.5 0.0 13400 23.40
21.09.18 16:49:09 1004 18.6 20 17.2 31 6.1 11.9 135 0.0 52500 23.37
21.09.18 16:44:09 1004 18.0 20 17.2 31 5.8 4.0 90 0.0 50600 23.32
21.09.18 16:39:09 1004 17.1 20 17.2 30 5.8 4.0 90 0.0 53800 23.26
21.09.18 16:34:09 1004 17.1 20 17.2 29 5.8 4.7 67.5 0.0 55000 23.21
21.09.18 16:29:09 1003 17.1 20 17.1 28 4.7 5.4 292.5 0.0 24100 23.16
21.09.18 16:24:10 1003 17.3 20 17.2 29 4.7 5.4 292.5 0.0 50700 23.13
21.09.18 16:19:09 1003 15.4 20 17.1 31 4.7 6.8 337.5 0.0 51800 23.08
21.09.18 16:14:09 1003 15.6 20 17.2 34 5.4 10.8 135 0.0 41000 23.03
21.09.18 16:09:09 1003 15.6 20 17.2 36 5.4 10.8 135 0.0 27500 22.58
21.09.18 16:04:09 1003 15.7 20 17.2 37 4.7 10.8 90 0.0 49200 22.52
21.09.18 15:59:09 1003 15.4 20 17.2 38 5.8 7.2 67.5 0.0 53100 22.47
21.09.18 15:54:09 1003 15.3 20 17.0 39 5.8 7.2 67.5 0.0 27300 22.42
21.09.18 15:49:09 1003 15.3 20 17.0 43 6.1 7.2 90 0.0 25800 22.37
21.09.18 15:44:09 1003 14.8 20 17.1 47 6.8 8.3 135 0.0 27100 22.31
21.09.18 15:39:10 1003 15.2 20 17.1 48 6.8 8.3 135 0.0 11800 22.31
21.09.18 15:34:09 1003 14.9 20 17.1 47 7.2 8.3 45 0.0 12000 22.31
21.09.18 15:29:09 1003 15.0 20 17.2 47 6.1 14.8 45 0.0 20800 22.31
21.09.18 15:24:10 1002 15.8 20 17.1 48 6.1 14.8 45 0.0 29300 22.26
21.09.18 15:19:09 1002 15.5 20 16.9 47 5.8 7.2 112.5 0.0 27500 22.21
21.09.18 15:14:09 1002 15.1 20 6.8 6.5 112.5 0.0 22100 22.15
21.09.18 15:09:10 1002 14.8 20 17.0 48 6.8 6.5 112.5 0.0 21900 22.10
21.09.18 15:04:10 1002 15.0 20 17.0 50 5.0 10.4 135 0.0 20400 22.05
21.09.18 14:59:10 1002 14.7 20 17.1 51 4.7 4.0 180 0.0 21300 22.00
21.09.18 14:54:09 1002 14.7 20 16.9 52 4.7 4.0 180 0.0 23100 21.54
21.09.18 14:49:09 1002 15.4 20 16.9 56 5.8 6.8 135 0.0 26500 21.49
21.09.18 14:44:09 1002 14.5 20 16.9 55 6.5 8.3 45 0.0 25300 21.44
21.09.18 14:39:09 1002 14.9 28 16.9 61 6.5 8.3 45 0.0 29600 21.41
21.09.18 14:34:09 1002 15.2 29 16.8 62 6.1 11.9 112.5 0.0 28200 21.36
21.09.18 14:29:09 1002 14.9 31 16.9 64 6.5 3.6 112.5 0.0 30200 21.31
21.09.18 14:24:14 1001 14.5 33 16.9 67 6.5 3.6 112.5 0.0 31000 21.26
21.09.18 14:19:14 1001 14.3 32 16.8 68 6.5 10.1 45 0.0 29500 21.20
21.09.18 14:14:14 1001 14.1 35 16.6 68 6.5 6.1 22.5 0.0 38200 21.15
21.09.18 14:09:09 1001 16.5 69 6.5 6.1 22.5 0.0 44700 21.10
21.09.18 14:04:09 1001 13.4 36 16.4 67 6.5 9.0 135 0.0 40000 21.05
21.09.18 13:59:09 1001 12.5 41 16.5 66 6.5 11.9 67.5 0.0 28300 20.59
21.09.18 13:54:10 1001 12.5 41 16.5 64 6.5 11.9 67.5 0.0 24700 20.54
21.09.18 13:49:09 1000 13.0 41 17.4 63 5.8 7.6 135 0.0 7950 20.54
21.09.18 13:44:09 1000 16.1 29 18.6 59 4.0 2.9 292.5 0.0 12800 20.54
21.09.18 13:39:09 1000 17.1 24 18.7 58 4.0 2.9 292.5 0.0 34600 20.51
21.09.18 13:34:09 1000 17.0 20 18.7 59 5.0 14.8 135 0.0 53800 20.49
21.09.18 13:29:09 1000 17.2 20 18.6 60 3.6 4.7 112.5 0.0 70100 20.43
21.09.18 13:24:09 1000 17.4 20 18.3 61 3.6 4.7 112.5 0.0 70800 20.38
21.09.18 13:19:09 1000 18.0 24 18.0 62 4.7 3.6 180 0.0 71200 20.30
21.09.18 13:14:09 1000 16.7 22 17.9 62 5.8 4.7 112.5 0.0 63500 20.28
21.09.18 13:09:11 1000 16.0 27 17.8 64 5.8 4.7 112.5 0.0 60400 20.22
21.09.18 13:04:10 1000 16.1 30 17.6 64 5.0 9.0 90 0.0 60300 20.17
21.09.18 12:59:10 1000 15.2 31 17.3 65 4.7 9.7 90 0.0 39500 20.12
21.09.18 12:54:09 1000 15.0 32 17.2 65 4.7 9.7 90 0.7 33000 20.09
21.09.18 12:49:09 1000 14.8 33 17.1 66 4.7 7.6 112.5 0.0 35200 20.04
21.09.18 12:44:09 1000 14.7 32 17.1 66 5.8 13.7 157.5 0.0 34700 19.56
21.09.18 12:39:09 1000 14.4 33 17.1 67 5.8 13.7 157.5 0.0 41000 19.54
21.09.18 12:34:09 1000 14.7 33 16.9 68 5.8 7.6 67.5 0.0 48700 19.48
21.09.18 12:29:09 1000 16.8 70 5.0 6.1 135 0.0 46200 19.43
21.09.18 12:24:09 1000 14.3 36 16.7 71 5.0 6.1 135 0.0 38200 19.38
21.09.18 12:19:09 1000 14.3 37 5.8 9.0 180 0.0 34500 19.33
21.09.18 12:14:09 1000 13.7 37 16.6 73 6.1 4.7 67.5 0.0 35500 19.27
21.09.18 12:09:11 1000 13.3 39 16.4 74 6.1 4.7 67.5 0.0 33600 19.22
21.09.18 12:04:11 1000 13.3 41 16.6 74 6.1 5.0 67.5 0.0 33000 19.17
21.09.18 11:59:11 1000 13.2 41 16.6 75 6.1 5.4 337.5 0.0 29800 19.14
21.09.18 11:54:11 1000 13.2 43 16.5 77 6.1 5.4 337.5 0.0 42200 19.09
21.09.18 11:49:11 1000 12.9 45 16.5 79 5.8 5.8 157.5 0.0 41500 19.04
21.09.18 11:44:11 1000 13.7 49 16.6 79 6.5 6.1 135 0.0 37000 18.56
21.09.18 11:39:11 1000 12.8 48 16.7 79 6.5 6.1 135 0.0 37700 18.53
21.09.18 11:34:11 1000 13.0 49 16.7 81 7.2 12.6 337.5 0.0 38200 18.48
21.09.18 11:29:11 1000 13.3 52 16.8 81 6.1 3.6 247.5 0.0 36300 18.43
21.09.18 11:24:11 1000 16.8 80 6.1 3.6 247.5 0.0 29900 18.37
21.09.18 11:19:11 1000 12.9 59 16.8 79 7.6 5.8 135 0.0 25000 18.32
21.09.18 11:14:11 1000 12.6 60 16.8 78 7.9 11.9 112.5 2.1 15600 18.30
21.09.18 11:09:11 1000 12.4 58 16.8 77 7.9 11.9 112.5 12800 18.30
21.09.18 11:04:11 1000 12.4 57 16.8 77 7.6 7.6 135 9480 18.30
21.09.18 10:59:11 999 12.5 57 17.0 77 7.9 6.5 135 6550 18.30
21.09.18 10:54:11 999 7.9 6.5 135 5050 18.30
21.09.18 10:49:10 999 13.2 55 17.4 75 7.6 12.2 135
21.09.18 10:44:10 999 13.8 52 17.8 71 8.3 16.2 112.5 9860 18.30
21.09.18 10:39:10 998 14.3 49 19.0 68 8.3 16.2 112.5 9830 18.30
21.09.18 10:34:10 997 16.4 43 20.5 62 8.3 16.9 180 3450 18.30
21.09.18 10:29:10 997 16.7 38 20.7 60 6.8 28.8 90 10200 18.30
21.09.18 10:24:10 997 17.2 33 21.3 54 6.8 28.8 90 10700 18.30
21.09.18 10:19:10 997 21.9 49 6.1 8.3 112.5 12900 18.30
21.09.18 10:14:10 997 18.6 23 21.9 46 6.5 7.6 112.5 17400 18.30
21.09.18 10:09:14 997 20.0 20 22.2 41 6.5 7.6 112.5 16500 18.30
21.09.18 10:04:14 997 20.9 20 22.2 38 18200 18.30
21.09.18 09:59:14 996 20.9 20 20800 18.27
21.09.18 09:54:14 996 20.8 20 22.1 38 15800 18.27
21.09.18 09:49:14 996 20.5 20 22.0 38 14500 18.27
21.09.18 09:44:14 996 20.5 20 22.0 38 12600 18.27
21.09.18 09:39:53 996 20.4 20 22.0 38 11700 18.27
21.09.18 09:34:53 996 20.3 20 22.0 38 13200 18.27
21.09.18 09:29:53 997 20.3 20 22.0 37 10100 18.27
21.09.18 09:24:15 997 20.4 20 22.0 36 6830 18.27
21.09.18 09:19:15 997 20.4 20 22.0 35 5230 18.27
21.09.18 09:14:14 997 20.5 20 22.0 34 0.0 6460 18.27
21.09.18 09:09:14 997 22.0 34 0.0 6820 18.27
21.09.18 09:04:14 997 22.0 34 0.0 5520 18.27
21.09.18 08:59:14 997 22.0 33 0.0 6900 18.27
21.09.18 08:54:15 997 20.5 20 21.9 33 0.0 7180 18.27
21.09.18 08:49:15 997 20.3 20 21.9 33 0.0 4970 18.27
21.09.18 08:44:14 997 20.3 20 21.9 33 0.0 3030 18.27
21.09.18 08:39:14 997 21.9 32 0.0 3060 18.27
21.09.18 08:34:14 996 21.9 32 0.0 2600 18.27
21.09.18 08:29:14 997 21.9 33 0.0 2170 18.27
21.09.18 08:24:15 997 20.4 20 22.0 33 0.0 1370 18.27
21.09.18 08:19:15 997 20.4 20 22.0 33 0.0 1420 18.27
21.09.18 08:14:14 997 20.5 20 22.0 34 9.0 7.6 135 0.0 2830 18.27
21.09.18 08:09:14 997 20.6 20 22.0 35 9.0 7.6 135 0.0 4180 18.27
21.09.18 08:04:14 997 20.4 20 21.9 36 6.8 7.2 247.5 0.0 4380 18.27
21.09.18 07:59:14 997 20.4 20 21.8 40 5.4 6.5 67.5 0.0 2280 18.27
21.09.18 07:54:14 997 20.1 20 21.8 41 5.4 6.5 67.5 0.0 1270 18.27
21.09.18 07:49:14 997 19.9 20 21.8 42 6.1 7.6 112.5 0.0 1240 18.27
21.09.18 07:44:14 997 20.0 20 21.9 44 6.1 7.2 135 0.0
21.09.18 07:39:15 997 21.9 45 6.1 7.2 135 0.0 1090 18.27
21.09.18 07:34:15 997 21.9 45 7.6 4.7 225 0.0 935 18.27
21.09.18 07:29:15 997 21.9 45 6.8 21.2 112.5 0.0 634 18.27
21.09.18 07:24:14 997 20.3 20 21.9 45 6.8 21.2 112.5 0.0 320 18.27
21.09.18 07:19:14 997 20.2 20 21.9 46 6.1 4.7 112.5 0.0 182 18.27
21.09.18 07:14:14 997 20.1 20 21.9 46 6.8 4.7 135 0.0 114 18.27
21.09.18 07:09:15 997 20.0 20 22.0 47 6.8 4.7 135 0.0 46 18.27
Index
© 2002-2012 Thomas Dreßler
Alle Rechte vorbehalten
letzte Scriptänderung 12.11.2012